Location: Ponte Samoggia
(44.5667°N, 11.1333°E)
Time: 23:19:56
(UTC+00:00)

Cosmos 1656 Rocket - Pass Details

Date: 26 May 2022
Orbit: 796 x 845 km, 71.1° (Epoch: 26 June)

Event Time Altitude Azimuth Distance (km) Brightness Sun altitude
Rises 02:01:26 0° 335° (NNW) 3,312 7.1 -13.9°
Reaches altitude 10° 02:03:51 10° 337° (NNW) 2,377 6.4 -13.6°
Maximum altitude 02:09:17 76° 64° (ENE) 825 3.8 -12.9°
Drops below altitude 10° 02:14:42 10° 150° (SSE) 2,369 5.9 -12.3°
Sets 02:17:06 0° 152° (SSE) 3,300 6.6 -12.0°
